Location: Lalanga
(4.5882°N, 32.9072°E)
Time: 17:49:00
(UTC+00:00)

Centaur D-1AR AC-36 - Pass Details

Date: 24 January 2020
Orbit: 552 x 36351 km, 21.9° (Epoch: 22 February)

Event Time Altitude Azimuth Distance (km) Brightness Sun altitude
Rises 16:15:58 0° 300° (WNW) 4,983 6.8 -5.2°
Reaches altitude 10° 16:21:00 10° 317° (NW) 2,613 5.1 -6.4°
Maximum altitude 16:24:32 19° 7° (N) 1,444 3.2 -7.2°
Drops below altitude 10° 16:27:04 10° 59° (ENE) 1,807 3.3 -7.8°
Enters shadow 16:27:14 - 61° (ENE) 1,861 3.4 -7.8°
